When you browse on this site, cookies collect data to enhance your experience and personalize the content and advertising you see.
Visit our Privacy Policy to learn more. By continuing to use the site, you agree to this use of cookies and data.
  • Em Portugal
  • Lista de países
  • Para 7 dias
  • Temperatura da água
  • Mapas de satélite
  • Mapa do tempo
  • Widgets de tempo
  • user-avatar
    Iniciar Sessão

    Previsão horária em Bochkary

    Hoje, 21 Abril, Domingo

    Tempo Temperatura Precipitação Vento Pressão Humidade
    00:00 +7°C° 0 mm 1 m/s 752 mmHg 76%
    01:00 +6°C° 0 mm 2 m/s 752 mmHg 78%
    02:00 +5°C° 0 mm 3 m/s 752 mmHg 84%
    03:00 +4°C° 0 mm 3 m/s 752 mmHg 85%
    04:00 +4°C° 0 mm 3 m/s 751 mmHg 86%
    05:00 +4°C° 0 mm 3 m/s 751 mmHg 87%
    06:00 +5°C° 0 mm 4 m/s 751 mmHg 82%
    07:00 +6°C° 0 mm 4 m/s 751 mmHg 77%
    08:00 +7°C° 0 mm 5 m/s 752 mmHg 71%
    09:00 +9°C° 0 mm 5 m/s 752 mmHg 67%
    10:00 +10°C° 0 mm 6 m/s 752 mmHg 62%
    11:00 +11°C° 0 mm 6 m/s 752 mmHg 58%
    12:00 +13°C° 0.3 mm 6 m/s 752 mmHg 54%
    13:00 +14°C° 0.3 mm 5 m/s 752 mmHg 49%
    14:00 +15°C° 0 mm 5 m/s 752 mmHg 47%
    15:00 +15°C° 0.1 mm 4 m/s 752 mmHg 46%
    16:00 +15°C° 0.1 mm 4 m/s 752 mmHg 45%
    17:00 +15°C° 0.1 mm 4 m/s 752 mmHg 44%
    18:00 +13°C° 0 mm 4 m/s 753 mmHg 50%
    19:00 +12°C° 0 mm 3 m/s 753 mmHg 57%
    20:00 +10°C° 0 mm 3 m/s 753 mmHg 64%
    21:00 +9°C° 0 mm 3 m/s 754 mmHg 66%
    22:00 +8°C° 0 mm 3 m/s 754 mmHg 68%
    23:00 +8°C° 0 mm 3 m/s 755 mmHg 70%

    Amanhã, 22 Abril, Segunda-feira

    Tempo Temperatura Precipitação Vento Pressão Humidade
    00:00 +7°C° 0 mm 2 m/s 755 mmHg 71%
    01:00 +7°C° 0 mm 2 m/s 755 mmHg 72%
    02:00 +6°C° 0 mm 2 m/s 755 mmHg 73%
    03:00 +6°C° 0 mm 2 m/s 756 mmHg 74%
    04:00 +6°C° 0 mm 2 m/s 756 mmHg 74%
    05:00 +5°C° 0 mm 2 m/s 756 mmHg 75%
    06:00 +7°C° 0 mm 2 m/s 757 mmHg 69%
    07:00 +9°C° 0 mm 2 m/s 757 mmHg 63%
    08:00 +12°C° 0 mm 2 m/s 757 mmHg 56%
    09:00 +13°C° 0 mm 2 m/s 758 mmHg 49%
    10:00 +14°C° 0 mm 3 m/s 758 mmHg 41%
    11:00 +16°C° 0 mm 3 m/s 758 mmHg 33%
    12:00 +17°C° 0 mm 3 m/s 758 mmHg 32%
    13:00 +17°C° 0 mm 3 m/s 758 mmHg 32%
    14:00 +18°C° 0 mm 3 m/s 758 mmHg 31%
    15:00 +17°C° 0 mm 3 m/s 758 mmHg 33%
    16:00 +17°C° 0 mm 3 m/s 758 mmHg 35%
    17:00 +17°C° 0 mm 3 m/s 757 mmHg 37%
    18:00 +14°C° 0 mm 3 m/s 758 mmHg 42%
    19:00 +14°C° 0 mm 2 m/s 758 mmHg 46%
    20:00 +12°C° 0 mm 2 m/s 758 mmHg 51%
    21:00 +12°C° 0 mm 1 m/s 758 mmHg 53%
    22:00 +11°C° 0 mm 1 m/s 758 mmHg 54%
    23:00 +10°C° 0 mm 1 m/s 758 mmHg 56%

    Depois de amanhã, 23 Abril, Terça-feira

    Tempo Temperatura Precipitação Vento Pressão Humidade
    00:00 +9°C° 0 mm 1 m/s 759 mmHg 57%
    01:00 +9°C° 0 mm 1 m/s 759 mmHg 58%
    02:00 +8°C° 0 mm 1 m/s 759 mmHg 59%
    03:00 +8°C° 0 mm 1 m/s 759 mmHg 60%
    04:00 +8°C° 0 mm 1 m/s 759 mmHg 61%
    05:00 +7°C° 0 mm 1 m/s 759 mmHg 61%
    06:00 +9°C° 0 mm 1 m/s 760 mmHg 57%
    07:00 +11°C° 0 mm 1 m/s 760 mmHg 52%
    08:00 +13°C° 0 mm 1 m/s 760 mmHg 47%
    09:00 +15°C° 0 mm 1 m/s 760 mmHg 43%
    10:00 +16°C° 0 mm 2 m/s 760 mmHg 39%
    11:00 +17°C° 0 mm 2 m/s 760 mmHg 34%
    12:00 +18°C° 0 mm 2 m/s 760 mmHg 34%
    13:00 +18°C° 0 mm 2 m/s 759 mmHg 34%
    14:00 +18°C° 0 mm 2 m/s 759 mmHg 34%
    15:00 +18°C° 0 mm 3 m/s 759 mmHg 36%
    16:00 +18°C° 0 mm 3 m/s 758 mmHg 38%
    17:00 +18°C° 0 mm 3 m/s 758 mmHg 40%
    18:00 +16°C° 0 mm 3 m/s 758 mmHg 46%
    19:00 +14°C° 0 mm 2 m/s 758 mmHg 51%
    20:00 +12°C° 0 mm 2 m/s 758 mmHg 57%
    21:00 +12°C° 0 mm 2 m/s 758 mmHg 58%
    22:00 +10°C° 0 mm 2 m/s 758 mmHg 59%
    23:00 +9°C° 0 mm 2 m/s 758 mmHg 60%

    24 Abril, Quarta-feira

    Tempo Temperatura Precipitação Vento Pressão Humidade
    00:00 +9°C° 0 mm 2 m/s 758 mmHg 61%
    01:00 +8°C° 0 mm 2 m/s 759 mmHg 61%
    02:00 +8°C° 0 mm 2 m/s 759 mmHg 62%
    03:00 +8°C° 0 mm 2 m/s 759 mmHg 62%
    04:00 +8°C° 0 mm 1 m/s 759 mmHg 63%
    05:00 +8°C° 0 mm 1 m/s 759 mmHg 63%
    06:00 +10°C° 0 mm 1 m/s 759 mmHg 59%
    07:00 +12°C° 0 mm 2 m/s 759 mmHg 55%
    08:00 +14°C° 0 mm 2 m/s 759 mmHg 50%
    09:00 +15°C° 0 mm 2 m/s 759 mmHg 46%
    10:00 +17°C° 0 mm 3 m/s 759 mmHg 41%
    11:00 +18°C° 0 mm 4 m/s 759 mmHg 36%
    12:00 +19°C° 0 mm 4 m/s 759 mmHg 36%
    13:00 +19°C° 0 mm 4 m/s 758 mmHg 36%
    14:00 +20°C° 0 mm 4 m/s 758 mmHg 36%
    15:00 +19°C° 0 mm 4 m/s 758 mmHg 37%
    16:00 +19°C° 0 mm 4 m/s 758 mmHg 39%
    17:00 +19°C° 0 mm 4 m/s 757 mmHg 40%
    18:00 +17°C° 0 mm 3 m/s 757 mmHg 46%
    19:00 +14°C° 0 mm 3 m/s 757 mmHg 52%
    20:00 +13°C° 0 mm 2 m/s 757 mmHg 58%
    21:00 +13°C° 0 mm 2 m/s 757 mmHg 60%
    22:00 +12°C° 0 mm 2 m/s 758 mmHg 61%
    23:00 +10°C° 0 mm 2 m/s 758 mmHg 62%

    25 Abril, Quinta-feira

    Tempo Temperatura Precipitação Vento Pressão Humidade
    00:00 +10°C° 0 mm 2 m/s 758 mmHg 64%
    01:00 +9°C° 0 mm 2 m/s 758 mmHg 65%
    02:00 +9°C° 0 mm 2 m/s 758 mmHg 66%
    03:00 +9°C° 0 mm 2 m/s 758 mmHg 68%
    04:00 +8°C° 0 mm 2 m/s 758 mmHg 69%
    05:00 +8°C° 0 mm 2 m/s 758 mmHg 71%
    06:00 +10°C° 0 mm 3 m/s 758 mmHg 66%
    07:00 +12°C° 0 mm 3 m/s 758 mmHg 61%
    08:00 +14°C° 0 mm 3 m/s 758 mmHg 56%
    09:00 +15°C° 0 mm 4 m/s 758 mmHg 51%
    10:00 +18°C° 0 mm 4 m/s 758 mmHg 45%
    11:00 +19°C° 0 mm 5 m/s 757 mmHg 40%
    12:00 +20°C° 0 mm 5 m/s 757 mmHg 39%
    13:00 +20°C° 0 mm 5 m/s 757 mmHg 38%
    14:00 +21°C° 0 mm 5 m/s 756 mmHg 37%
    15:00 +21°C° 0 mm 5 m/s 756 mmHg 39%
    16:00 +20°C° 0 mm 4 m/s 756 mmHg 40%
    17:00 +20°C° 0 mm 4 m/s 755 mmHg 42%
    18:00 +18°C° 0 mm 4 m/s 755 mmHg 48%
    19:00 +16°C° 0 mm 3 m/s 755 mmHg 55%
    20:00 +13°C° 0 mm 3 m/s 754 mmHg 61%
    21:00 +13°C° 0 mm 3 m/s 754 mmHg 61%
    22:00 +12°C° 0 mm 3 m/s 754 mmHg 62%
    23:00 +12°C° 0 mm 3 m/s 754 mmHg 62%

    26 Abril, Sexta-feira

    Tempo Temperatura Precipitação Vento Pressão Humidade
    00:00 +11°C° 0 mm 3 m/s 754 mmHg 65%
    01:00 +11°C° 0 mm 3 m/s 753 mmHg 67%
    02:00 +10°C° 0 mm 3 m/s 753 mmHg 70%
    03:00 +10°C° 0 mm 3 m/s 753 mmHg 71%
    04:00 +10°C° 0 mm 3 m/s 753 mmHg 72%
    05:00 +9°C° 0 mm 3 m/s 752 mmHg 74%
    06:00 +11°C° 0 mm 4 m/s 752 mmHg 68%
    07:00 +13°C° 0 mm 4 m/s 752 mmHg 62%
    08:00 +15°C° 0 mm 5 m/s 752 mmHg 56%
    09:00 +16°C° 0 mm 5 m/s 751 mmHg 50%
    10:00 +19°C° 0 mm 6 m/s 751 mmHg 45%
    11:00 +20°C° 0 mm 6 m/s 751 mmHg 40%
    12:00 +21°C° 0 mm 6 m/s 750 mmHg 38%
    13:00 +22°C° 0 mm 6 m/s 750 mmHg 37%
    14:00 +22°C° 0 mm 5 m/s 750 mmHg 36%
    15:00 +22°C° 0 mm 5 m/s 749 mmHg 38%
    16:00 +22°C° 0 mm 4 m/s 749 mmHg 39%
    17:00 +22°C° 0 mm 4 m/s 749 mmHg 41%
    18:00 +20°C° 0 mm 3 m/s 749 mmHg 49%
    19:00 +18°C° 0 mm 3 m/s 748 mmHg 57%
    20:00 +16°C° 0 mm 2 m/s 748 mmHg 64%
    21:00 +15°C° 0.1 mm 2 m/s 748 mmHg 68%
    22:00 +14°C° 0.1 mm 2 m/s 748 mmHg 72%
    23:00 +14°C° 0.1 mm 2 m/s 748 mmHg 76%
    Mostrar mais